Sunlight Mountain, CO

10:06 PM MDT on April 28, 2017 (GMT -0600)
Sunlight Mountain

Weather History for K5SM - July, 2013

Change the Weather History Date:

Friday, July 5, 2013

  Actual Average (KRIL) Record (KRIL)
Temperature  
Mean Temperature 60 °F -  
Max Temperature 69 °F 90 °F 102 °F (1989)
Min Temperature 50 °F 48 °F 38 °F (1931)
Degree Days  
Heating Degree Days 6    
Growing Degree Days 10 (Base 50)    
Moisture  
Dew Point 45 °F    
Average Humidity 59    
Maximum Humidity 88    
Minimum Humidity 40    
Precipitation  
Precipitation 0.00 in - - ()
Sea Level Pressure  
Sea Level Pressure 30.40 in    
Wind  
Wind Speed 2 mph (West)    
Max Wind Speed 10 mph    
Max Gust Speed 20 mph    
Visibility 8 miles    
Events Rain    
Averages and records for this station are not official NWS values.
T = Trace of Precipitation, MM = Missing Value Source: NWS Daily Summary

Daily Weather History Graph

Daily Weather History Graph

Search for Another Location

Airport or City:

Trip Planner

Search our weather history database for the weather conditions in past years. The results will help you decide how hot, cold, wet, or windy it might be!

Date:

Astronomy

Jul. 05, 2013 Rise Set
Actual Time 5:48 AM MDT 8:39 PM MDT
Civil Twilight 5:16 AM MDT 9:11 PM MDT
Nautical Twilight 4:35 AM MDT 9:52 PM MDT
Astronomical Twilight 3:49 AM MDT 10:38 PM MDT
Moon 3:49 AM MDT (7/5) 6:37 PM MDT (7/5)
Length of Visible Light 15h 55m
Length of Day
14h 51m
Waning Crescent, 6% of the Moon is Illuminated
Jul 5
Waning Crescent
Jul 8
New
Jul 15
First Quarter
Jul 22
Full
Jul 29
Last Quarter

Hourly Weather History & Observations

Time (MDT) Temp. Dew Point Humidity Pressure Visibility Wind Dir Wind Speed Gust Speed Precip Events Conditions
12:01 AM 60.8 °F 37.4 °F 42% 30.42 in 7.0 mi WNW 3.5 mph - N/A   Overcast
12:21 AM 59.0 °F 41.0 °F 51% 30.42 in 7.0 mi WNW 5.8 mph - N/A   Overcast
12:41 AM 57.2 °F 41.0 °F 55% 30.42 in 7.0 mi NW 6.9 mph - N/A   Overcast
1:01 AM 53.6 °F 44.6 °F 72% 30.43 in 7.0 mi WNW 10.4 mph 19.6 mph N/A Rain Light Rain
1:21 AM 51.8 °F 44.6 °F 76% 30.43 in 10.0 mi West 8.1 mph - N/A   Overcast
1:41 AM 51.8 °F 46.4 °F 82% 30.43 in 7.0 mi Calm Calm - N/A Rain Light Rain
2:01 AM 55.4 °F 41.0 °F 58% 30.41 in 10.0 mi Calm Calm - N/A   Light Drizzle
2:20 AM 55.4 °F 41.0 °F 58% 30.41 in 10.0 mi Calm Calm - N/A   Overcast
2:41 AM 55.4 °F 42.8 °F 63% 30.41 in 10.0 mi Calm Calm - N/A   Mostly Cloudy
3:01 AM 55.4 °F 42.8 °F 63% 30.41 in 10.0 mi Calm Calm - N/A   Overcast
3:21 AM 55.4 °F 41.0 °F 58% 30.41 in 10.0 mi Calm Calm - N/A   Overcast
3:41 AM 55.4 °F 42.8 °F 63% 30.39 in 7.0 mi Calm Calm - N/A Rain Light Rain
4:01 AM 55.4 °F 42.8 °F 63% 30.39 in 10.0 mi Calm Calm - N/A   Overcast
4:21 AM 55.4 °F 42.8 °F 63% 30.38 in 7.0 mi Calm Calm - N/A   Mostly Cloudy
4:41 AM 55.4 °F 41.0 °F 58% 30.39 in 7.0 mi Calm Calm - N/A   Scattered Clouds
5:01 AM 55.4 °F 41.0 °F 58% 30.38 in 7.0 mi Calm Calm - N/A   Scattered Clouds
5:21 AM 55.4 °F 42.8 °F 63% 30.38 in 7.0 mi Calm Calm - N/A   Mostly Cloudy
5:41 AM 55.4 °F 41.0 °F 58% 30.38 in 7.0 mi Calm Calm - N/A   Mostly Cloudy
6:01 AM 53.6 °F 41.0 °F 62% 30.38 in 5.0 mi Calm Calm - N/A   Haze
6:21 AM 53.6 °F 41.0 °F 62% 30.38 in 5.0 mi Calm Calm - N/A   Haze
6:41 AM 55.4 °F 41.0 °F 58% 30.39 in 5.0 mi Calm Calm - N/A   Haze
7:00 AM 55.4 °F 42.8 °F 63% 30.39 in 5.0 mi Calm Calm - N/A   Haze
7:21 AM 55.4 °F 42.8 °F 63% 30.41 in 7.0 mi WNW 4.6 mph - N/A   Overcast
7:39 AM 50.0 °F 46.4 °F 87% 30.42 in 5.0 mi WSW 5.8 mph - N/A Rain Rain
8:01 AM 50.0 °F 46.4 °F 87% 30.43 in 7.0 mi West 5.8 mph - N/A Rain Light Rain
8:21 AM 50.0 °F 46.4 °F 87% 30.42 in 10.0 mi Calm Calm - N/A Rain Light Rain
8:42 AM 51.8 °F 46.4 °F 82% 30.42 in 10.0 mi Calm Calm - N/A   Mostly Cloudy
9:02 AM 51.8 °F 46.4 °F 82% 30.42 in 10.0 mi Calm Calm - N/A   Mostly Cloudy
9:22 AM 53.6 °F 46.4 °F 77% 30.42 in 10.0 mi Calm Calm - N/A   Mostly Cloudy
9:42 AM 57.2 °F 50.0 °F 77% 30.41 in 10.0 mi Calm Calm - N/A   Overcast
10:02 AM 60.8 °F 50.0 °F 68% 30.41 in 10.0 mi Calm Calm - N/A   Scattered Clouds
10:22 AM 60.8 °F 46.4 °F 59% 30.41 in 10.0 mi Calm Calm - N/A   Scattered Clouds
10:41 AM 60.8 °F 50.0 °F 68% 30.41 in 10.0 mi Calm Calm - N/A   Mostly Cloudy
11:02 AM 60.8 °F 48.2 °F 63% 30.42 in 7.0 mi Calm Calm - N/A   Overcast
11:22 AM 62.6 °F 50.0 °F 63% 30.42 in 7.0 mi Calm Calm - N/A   Overcast
11:42 AM 62.6 °F 50.0 °F 63% 30.42 in 7.0 mi Calm Calm - N/A   Overcast
12:02 PM 62.6 °F 50.0 °F 63% 30.42 in 7.0 mi Calm Calm - N/A   Mostly Cloudy
12:22 PM 66.2 °F 51.8 °F 60% 30.42 in 7.0 mi Calm Calm - N/A   Mostly Cloudy
12:42 PM 66.2 °F 51.8 °F 60% 30.42 in 10.0 mi WSW 3.5 mph - N/A   Mostly Cloudy
1:02 PM 68.0 °F 53.6 °F 60% 30.42 in 10.0 mi SW 3.5 mph - N/A   Scattered Clouds
1:22 PM 69.8 °F 53.6 °F 56% 30.42 in 10.0 mi Calm Calm - N/A   Scattered Clouds
1:42 PM 66.2 °F 48.2 °F 52% 30.42 in 10.0 mi Calm Calm - N/A   Scattered Clouds
2:02 PM 68.0 °F 50.0 °F 52% 30.42 in 10.0 mi Calm Calm - N/A   Scattered Clouds
2:22 PM 69.8 °F 50.0 °F 49% 30.40 in 10.0 mi Calm Calm - N/A   Scattered Clouds
2:42 PM 69.8 °F 46.4 °F 43% 30.40 in 10.0 mi Calm Calm - N/A   Scattered Clouds
3:02 PM 66.2 °F 48.2 °F 52% 30.40 in 10.0 mi Calm Calm - N/A   Mostly Cloudy
3:21 PM 69.8 °F 50.0 °F 49% 30.40 in 10.0 mi Calm Calm - N/A   Scattered Clouds
3:41 PM 68.0 °F 46.4 °F 46% 30.40 in 10.0 mi Calm Calm - N/A   Mostly Cloudy
4:02 PM 68.0 °F 46.4 °F 46% 30.39 in 10.0 mi Calm Calm - N/A   Mostly Cloudy
4:22 PM 69.8 °F 46.4 °F 43% 30.38 in 10.0 mi Calm Calm - N/A   Scattered Clouds
4:42 PM 69.8 °F 46.4 °F 43% 30.37 in 10.0 mi WSW 4.6 mph - N/A   Clear
5:02 PM 68.0 °F 46.4 °F 46% 30.37 in 10.0 mi Calm Calm - N/A   Clear
5:22 PM 69.8 °F 44.6 °F 40% 30.37 in 10.0 mi Calm Calm - N/A   Clear
5:42 PM 68.0 °F 44.6 °F 43% 30.37 in 10.0 mi Calm Calm - N/A   Clear
6:02 PM 66.2 °F 44.6 °F 46% 30.37 in 10.0 mi Calm Calm - N/A   Scattered Clouds
6:22 PM 66.2 °F 42.8 °F 43% 30.37 in 10.0 mi SW 3.5 mph - N/A   Clear
6:42 PM 68.0 °F 44.6 °F 43% 30.37 in 7.0 mi Calm Calm - N/A   Scattered Clouds
7:02 PM 66.2 °F 44.6 °F 46% 30.37 in 10.0 mi Calm Calm - N/A   Scattered Clouds
7:22 PM 66.2 °F 44.6 °F 46% 30.37 in 7.0 mi Calm Calm - N/A   Clear
7:42 PM 64.4 °F 44.6 °F 49% 30.37 in 10.0 mi Calm Calm - N/A   Clear
8:02 PM 62.6 °F 44.6 °F 52% 30.37 in 7.0 mi Calm Calm - N/A   Clear
8:22 PM 62.6 °F 42.8 °F 48% 30.37 in 7.0 mi Calm Calm - N/A   Mostly Cloudy
8:42 PM 60.8 °F 42.8 °F 52% 30.38 in 7.0 mi Calm Calm - N/A   Scattered Clouds
9:02 PM 60.8 °F 42.8 °F 52% 30.37 in 7.0 mi Calm Calm - N/A   Scattered Clouds
9:22 PM 60.8 °F 42.8 °F 52% 30.38 in 10.0 mi Calm Calm - N/A   Mostly Cloudy
9:42 PM 60.8 °F 42.8 °F 52% 30.39 in 10.0 mi Calm Calm - N/A   Overcast
10:02 PM 60.8 °F 42.8 °F 52% 30.40 in 7.0 mi Calm Calm - N/A   Overcast
10:21 PM 55.4 °F 46.4 °F 72% 30.41 in 3.0 mi Calm Calm - N/A Rain Light Rain
10:42 PM 51.8 °F 48.2 °F 88% 30.41 in 10.0 mi West 5.8 mph - N/A   Mostly Cloudy
11:01 PM 59.0 °F 42.8 °F 55% 30.40 in 10.0 mi WNW 3.5 mph - N/A   Scattered Clouds
11:22 PM 53.6 °F 46.4 °F 77% 30.40 in 10.0 mi Calm Calm - N/A   Scattered Clouds
11:42 PM 53.6 °F 46.4 °F 77% 30.40 in 10.0 mi Calm Calm - N/A   Mostly Cloudy